When you browse on this site, cookies collect data to enhance your experience and personalize the content and advertising you see.
Visit our Privacy Policy to learn more. By continuing to use the site, you agree to this use of cookies and data.
  • In Österreich
  • Länderverzeichnis
  • Für 7 Tage
  • Wassertemperatur
  • Satellitenkarten
  • Wetterkarte
  • News
  • Widgets
  • user-avatar
    Anmelden

    Stündliche Wetter Streamwood

    Heute, 16 Juli, Dienstag

    Zeit Temperatur Niederschläge Wind Luftdruck Luftfeuchtigkeit
    00:00 +24°C° 0 mm 3 m/S 739 mmHg 83%
    01:00 +24°C° 0 mm 3 m/S 739 mmHg 85%
    02:00 +22°C° 0 mm 4 m/S 738 mmHg 86%
    03:00 +22°C° 0 mm 4 m/S 738 mmHg 87%
    04:00 +22°C° 0 mm 4 m/S 738 mmHg 88%
    05:00 +22°C° 0 mm 3 m/S 738 mmHg 89%
    06:00 +23°C° 0 mm 2 m/S 739 mmHg 90%
    07:00 +24°C° 0.1 mm 2 m/S 739 mmHg 88%
    08:00 +25°C° 0.1 mm 2 m/S 739 mmHg 87%
    09:00 +25°C° 0.1 mm 2 m/S 739 mmHg 86%
    10:00 +27°C° 0.1 mm 2 m/S 739 mmHg 81%
    11:00 +28°C° 0.1 mm 3 m/S 739 mmHg 76%
    12:00 +29°C° 0.1 mm 3 m/S 738 mmHg 72%
    13:00 +29°C° 0.2 mm 2 m/S 738 mmHg 71%
    14:00 +30°C° 0.2 mm 2 m/S 738 mmHg 70%
    15:00 +30°C° 0.2 mm 2 m/S 737 mmHg 70%
    16:00 +30°C° 0.2 mm 2 m/S 737 mmHg 73%
    17:00 +29°C° 0.2 mm 1 m/S 737 mmHg 75%
    18:00 +29°C° 0.2 mm 1 m/S 737 mmHg 78%
    19:00 +28°C° 0 mm 1 m/S 737 mmHg 80%
    20:00 +27°C° 0 mm 1 m/S 737 mmHg 82%
    21:00 +26°C° 0 mm 1 m/S 737 mmHg 84%
    22:00 +26°C° 0 mm 1 m/S 737 mmHg 84%
    23:00 +25°C° 0 mm 1 m/S 737 mmHg 85%

    Morgen, 17 Juli, Mittwoch

    Zeit Temperatur Niederschläge Wind Luftdruck Luftfeuchtigkeit
    00:00 +25°C° 0 mm 1 m/S 737 mmHg 85%
    01:00 +25°C° 0 mm 1 m/S 737 mmHg 86%
    02:00 +24°C° 0 mm 1 m/S 737 mmHg 87%
    03:00 +24°C° 0 mm 1 m/S 737 mmHg 88%
    04:00 +24°C° 0 mm 1 m/S 737 mmHg 88%
    05:00 +25°C° 0 mm 1 m/S 737 mmHg 88%
    06:00 +25°C° 0 mm 1 m/S 737 mmHg 87%
    07:00 +27°C° 0 mm 1 m/S 737 mmHg 81%
    08:00 +29°C° 0 mm 1 m/S 738 mmHg 75%
    09:00 +28°C° 0 mm 0 m/S 739 mmHg 69%
    10:00 +31°C° 0.2 mm 1 m/S 738 mmHg 68%
    11:00 +31°C° 0.2 mm 1 m/S 738 mmHg 67%
    12:00 +31°C° 0.2 mm 2 m/S 738 mmHg 66%
    13:00 +32°C° 0 mm 2 m/S 738 mmHg 66%
    14:00 +33°C° 0 mm 3 m/S 737 mmHg 65%
    15:00 +33°C° 0 mm 3 m/S 737 mmHg 65%
    16:00 +33°C° 0.1 mm 3 m/S 737 mmHg 68%
    17:00 +31°C° 0.1 mm 2 m/S 737 mmHg 72%
    18:00 +30°C° 0.1 mm 2 m/S 737 mmHg 75%
    19:00 +29°C° 0.1 mm 2 m/S 737 mmHg 78%
    20:00 +28°C° 0.1 mm 2 m/S 737 mmHg 80%
    21:00 +27°C° 0.1 mm 2 m/S 737 mmHg 83%
    22:00 +27°C° 0.1 mm 2 m/S 737 mmHg 85%
    23:00 +27°C° 0.1 mm 3 m/S 737 mmHg 87%

    übermorgen, 18 Juli, Donnerstag

    Zeit Temperatur Niederschläge Wind Luftdruck Luftfeuchtigkeit
    00:00 +27°C° 0.1 mm 3 m/S 737 mmHg 89%
    01:00 +27°C° 0 mm 4 m/S 736 mmHg 89%
    02:00 +27°C° 0 mm 4 m/S 736 mmHg 89%
    03:00 +26°C° 0 mm 5 m/S 736 mmHg 89%
    04:00 +27°C° 0 mm 5 m/S 736 mmHg 89%
    05:00 +27°C° 0 mm 5 m/S 736 mmHg 88%
    06:00 +27°C° 0 mm 5 m/S 735 mmHg 87%
    07:00 +28°C° 0 mm 6 m/S 735 mmHg 83%
    08:00 +30°C° 0 mm 6 m/S 736 mmHg 79%
    09:00 +32°C° 0 mm 7 m/S 736 mmHg 75%
    10:00 +33°C° 0 mm 7 m/S 735 mmHg 72%
    11:00 +34°C° 0 mm 7 m/S 735 mmHg 69%
    12:00 +35°C° 0 mm 7 m/S 735 mmHg 66%
    13:00 +35°C° 0 mm 7 m/S 735 mmHg 67%
    14:00 +35°C° 0 mm 7 m/S 734 mmHg 68%
    15:00 +35°C° 0 mm 8 m/S 734 mmHg 68%
    16:00 +34°C° 0 mm 7 m/S 734 mmHg 72%
    17:00 +34°C° 0 mm 7 m/S 734 mmHg 76%
    18:00 +33°C° 0 mm 7 m/S 734 mmHg 79%
    19:00 +32°C° 0 mm 6 m/S 734 mmHg 80%
    20:00 +32°C° 0 mm 6 m/S 735 mmHg 81%
    21:00 +30°C° 0 mm 6 m/S 735 mmHg 82%
    22:00 +30°C° 0 mm 6 m/S 735 mmHg 81%
    23:00 +29°C° 0 mm 6 m/S 735 mmHg 81%

    19 Juli, Freitag

    Zeit Temperatur Niederschläge Wind Luftdruck Luftfeuchtigkeit
    00:00 +29°C° 0 mm 6 m/S 735 mmHg 80%
    01:00 +29°C° 0 mm 5 m/S 735 mmHg 81%
    02:00 +28°C° 0 mm 5 m/S 735 mmHg 82%
    03:00 +28°C° 0 mm 5 m/S 735 mmHg 84%
    04:00 +28°C° 0 mm 5 m/S 735 mmHg 84%
    05:00 +28°C° 0 mm 5 m/S 736 mmHg 85%
    06:00 +28°C° 0 mm 5 m/S 736 mmHg 86%
    07:00 +29°C° 0 mm 5 m/S 736 mmHg 82%
    08:00 +30°C° 0 mm 5 m/S 737 mmHg 79%
    09:00 +32°C° 0 mm 5 m/S 737 mmHg 75%
    10:00 +33°C° 0 mm 5 m/S 737 mmHg 74%
    11:00 +33°C° 0 mm 6 m/S 737 mmHg 72%
    12:00 +34°C° 0 mm 6 m/S 737 mmHg 70%
    13:00 +34°C° 0 mm 6 m/S 737 mmHg 70%
    14:00 +35°C° 0 mm 6 m/S 737 mmHg 70%
    15:00 +35°C° 0 mm 6 m/S 737 mmHg 70%
    16:00 +34°C° 0 mm 6 m/S 736 mmHg 73%
    17:00 +33°C° 0 mm 6 m/S 736 mmHg 77%
    18:00 +33°C° 0 mm 5 m/S 736 mmHg 80%
    19:00 +32°C° 0 mm 5 m/S 737 mmHg 83%
    20:00 +30°C° 0 mm 5 m/S 737 mmHg 86%
    21:00 +29°C° 0 mm 5 m/S 737 mmHg 89%
    22:00 +29°C° 0 mm 5 m/S 737 mmHg 89%
    23:00 +28°C° 0 mm 4 m/S 737 mmHg 89%

    20 Juli, Samstag

    Zeit Temperatur Niederschläge Wind Luftdruck Luftfeuchtigkeit
    00:00 +28°C° 0 mm 4 m/S 737 mmHg 89%
    01:00 +28°C° 0 mm 4 m/S 737 mmHg 89%
    02:00 +27°C° 0 mm 4 m/S 737 mmHg 90%
    03:00 +27°C° 0 mm 3 m/S 737 mmHg 91%
    04:00 +27°C° 0 mm 3 m/S 737 mmHg 90%
    05:00 +27°C° 0 mm 4 m/S 737 mmHg 89%
    06:00 +27°C° 0 mm 4 m/S 738 mmHg 88%
    07:00 +29°C° 0 mm 4 m/S 738 mmHg 84%
    08:00 +30°C° 0 mm 4 m/S 738 mmHg 80%
    09:00 +32°C° 0 mm 5 m/S 738 mmHg 75%
    10:00 +33°C° 0 mm 5 m/S 738 mmHg 72%
    11:00 +34°C° 0 mm 5 m/S 737 mmHg 68%
    12:00 +35°C° 0 mm 6 m/S 737 mmHg 65%
    13:00 +35°C° 0 mm 5 m/S 737 mmHg 65%
    14:00 +35°C° 0 mm 5 m/S 737 mmHg 64%
    15:00 +35°C° 0 mm 5 m/S 738 mmHg 64%
    16:00 +34°C° 0 mm 4 m/S 737 mmHg 68%
    17:00 +34°C° 0 mm 4 m/S 737 mmHg 72%
    18:00 +33°C° 0 mm 3 m/S 737 mmHg 76%
    19:00 +31°C° 0 mm 3 m/S 737 mmHg 79%
    20:00 +30°C° 0 mm 3 m/S 737 mmHg 82%
    21:00 +29°C° 0 mm 3 m/S 737 mmHg 85%
    22:00 +28°C° 0 mm 3 m/S 737 mmHg 85%
    23:00 +28°C° 0 mm 3 m/S 737 mmHg 86%

    21 Juli, Sonntag

    Zeit Temperatur Niederschläge Wind Luftdruck Luftfeuchtigkeit
    00:00 +27°C° 0 mm 3 m/S 737 mmHg 87%
    01:00 +27°C° 0 mm 3 m/S 737 mmHg 88%
    02:00 +27°C° 0 mm 3 m/S 736 mmHg 89%
    03:00 +26°C° 0 mm 3 m/S 736 mmHg 90%
    04:00 +26°C° 0 mm 3 m/S 736 mmHg 89%
    05:00 +27°C° 0 mm 4 m/S 736 mmHg 89%
    06:00 +27°C° 0 mm 4 m/S 736 mmHg 88%
    07:00 +28°C° 0 mm 4 m/S 736 mmHg 82%
    08:00 +30°C° 0 mm 5 m/S 736 mmHg 77%
    09:00 +32°C° 0 mm 5 m/S 736 mmHg 71%
    10:00 +33°C° 0 mm 5 m/S 736 mmHg 68%
    11:00 +34°C° 0 mm 6 m/S 736 mmHg 65%
    12:00 +34°C° 0 mm 6 m/S 735 mmHg 61%
    13:00 +34°C° 0 mm 7 m/S 735 mmHg 63%
    14:00 +34°C° 0 mm 7 m/S 735 mmHg 65%
    15:00 +34°C° 0 mm 7 m/S 735 mmHg 68%
    16:00 +33°C° 0.3 mm 6 m/S 734 mmHg 71%
    17:00 +32°C° 0.3 mm 6 m/S 734 mmHg 75%
    18:00 +32°C° 0.3 mm 5 m/S 734 mmHg 79%
    19:00 +29°C° 2.9 mm 5 m/S 734 mmHg 82%
    20:00 +28°C° 2.9 mm 4 m/S 734 mmHg 84%
    21:00 +27°C° 2.9 mm 4 m/S 734 mmHg 87%
    22:00 +25°C° 1 mm 4 m/S 734 mmHg 86%
    23:00 +23°C° 1 mm 4 m/S 734 mmHg 86%
    Mehr zeigen